Regional Weather Roundup
Issued by NWS

Home | Current Version | Previous Version | Graphics & Text | Print | Product List | Glossary Off
Versions: 1 2 3 4 5 6 7 8 9 10 11 12 13 14 15 16 17 18 19 20 21 22 23 24 25 26 27 28 29 30 31 32 33 34 35 36 37 38 39 40 41 42 43 44 45 46 47 48 49 50

000
ASUS43 KDMX 041608
RWRIA

WEATHER ROUNDUP FOR IOWA
NATIONAL WEATHER SERVICE DES MOINES IA
1100 AM CDT WED MAY 04 2016

NOTE: "FAIR" INDICATES FEW OR NO CLOUDS BELOW 12,000 FEET WITH NO
SIGNIFICANT WEATHER AND/OR OBSTRUCTIONS TO VISIBILITY.

* - THESE STATIONS ARE NOT NWS STATIONS...THUS NOT UNDER NWS
QUALITY CONTROL.  THEY ALSO DO NOT REPORT WEATHER SUCH
AS PRECIPITATION OR FOG.

IAZ001>003-012>014-020>022-031>034-043>046-041700-
   NORTHWEST IOWA

CITY           SKY/WX    TMP DP  RH WIND       PRES   REMARKS
CARROLL *      SUNNY     57  39  51 N17       30.03R
CHEROKEE *     SUNNY     57  39  51 N13       30.05S
DENISON *      SUNNY     59  37  44 N14       30.02S
LE MARS *      SUNNY     59  36  41 N14       30.08S
ORANGE CITY *  SUNNY     57  36  44 N7G16     30.07S
SHELDON *      SUNNY     57  34  41 N18       30.05S
SIOUX CITY     SUNNY     61  38  42 N10       30.08R
SPENCER        SUNNY     57  34  41 N12G20    30.05S
STORM LAKE *   SUNNY     55  37  50 N14       30.05S
$$

IAZ055>058-069>071-079>083-090>094-041700-
   SOUTHWEST IOWA

CITY           SKY/WX    TMP DP  RH WIND       PRES   REMARKS
ATLANTIC *     SUNNY     59  39  47 N15G22    30.02S
AUDUBON *      SUNNY     57  39  51 N13       30.04R
CLARINDA *       N/A    N/A N/A N/A MISG        N/A
COUNCIL BLFS * SUNNY     59  39  47 N9G18     30.05R
CRESTON *      SUNNY     59  41  51 N16       30.01R
HARLAN  *      SUNNY     59  37  44 N12G18    30.07R
LAMONI         SUNNY     60  42  51 N14       29.97R
RED OAK *      SUNNY     61  43  51 N9G17     30.03R
SHENANDOAH *   SUNNY     61  43  51 N14       30.03S
$$

IAZ047>049-059>061-072>074-084-041700-
   CENTRAL IOWA

CITY           SKY/WX    TMP DP  RH WIND       PRES   REMARKS
AMES           SUNNY     58  36  43 N20G25    29.99R
ANKENY *       SUNNY     59  36  41 N14G21    29.98R
BOONE *        SUNNY     57  36  44 N20       29.99R
CHARITON *     SUNNY     59  43  55 N15G22    29.96R
DES MOINES     MOSUNNY   60  35  39 N14G23    29.98R
GRINNELL*      SUNNY     57  36  44 N16G23    29.95S
KNOXVILLE *    SUNNY     57  36  44 N14G22    29.95R
MARSHALLTOWN   SUNNY     57  36  45 N17G32    29.96R
NEWTON *       SUNNY     57  37  47 N16G22    29.96R
PELLA *        SUNNY     59  37  44 N10G23    29.97R
PERRY *          N/A     59  37  44 N16G23    30.01R
$$

IAZ004>006-015-016-023>025-035-036-041700-
   NORTH CENTRAL IOWA

CITY           SKY/WX    TMP DP  RH WIND       PRES   REMARKS
ALGONA *       SUNNY     57  34  41 N12G20    30.02S
CLARION *      SUNNY     57  32  38 N16G24    29.99S
ESTHERVILLE    SUNNY     55  35  47 N18       30.03S
FORT DODGE *   SUNNY     57  34  41 N9G18     30.02S
MASON CITY     SUNNY     57  34  41 NW18G28   29.99S
FOREST CITY *  SUNNY     55  34  44 N21       29.99S
WEBSTER CITY * SUNNY     59  34  38 N18       29.98S
IOWA FALLS *     N/A     57  34  41 N18G25    29.99S
$$

IAZ007>011-017>019-026>030-037>042-050>054-066-041700-
   NORTHEAST IOWA

CITY           SKY/WX    TMP DP  RH WIND       PRES   REMARKS
CEDAR RAPIDS   MOSUNNY   56  40  55 N15       29.90S
CHARLES CITY * SUNNY     57  32  38 NW23      29.96R
CLINTON *      MOSUNNY   54  43  66 N17       29.86R
DECORAH *      MOSUNNY   54  36  50 N17G29    29.91S
DUBUQUE        SUNNY     53  38  56 N20G29    29.86S
MONTICELLO *   SUNNY     55  36  47 N14G29    29.89S
OELWEIN *      MOSUNNY   55  34  44 N21G28    29.93S
WATERLOO       MOSUNNY   57  35  43 N18G30    29.94S
$$

IAZ064-065-067-068-078-041700-
   EAST CENTRAL IOWA

CITY           SKY/WX    TMP DP  RH WIND       PRES   REMARKS
DAVENPORT      MOSUNNY   55  42  61 N17G28    29.87R
IOWA CITY      SUNNY     57  37  47 N14G26    29.92R
MT. PLEASANT * PTSUNNY   59  48  67 N16G24    29.90R
MUSCATINE *    MOSUNNY   57  41  54 N15G25    29.89R
QUAD CITIES    SUNNY     57  39  51 N14G26    29.85R
$$

IAZ062-063-075>077-085>089-095>099-041700-
   SOUTHEAST IOWA

CITY           SKY/WX    TMP DP  RH WIND       PRES   REMARKS
BURLINGTON     PTSUNNY   57  45  64 N17       29.87R
FAIRFIELD *    MOSUNNY   57  43  58 N22       29.91R
FORT MADISON * MOSUNNY   57  46  67 N14G22    29.89R
KEOKUK *       PTSUNNY   59  46  63 N14G22    29.88R
OSKALOOSA *      N/A     57  39  51 N18G24    29.94R
OTTUMWA        SUNNY     58  41  53 N21G28    29.93R
WASHINGTON *   MOSUNNY   57  43  58 N23       29.92R
$$

ABBREVIATIONS USED IN REMARKS
   TC - TEMPERATURES IN CELSIUS
  WCI - WIND CHILL INDEX
   HX - HEAT INDEX
  VSB - VISIBILITY
$$





USA.gov is the U.S. government's official web portal to all federal, state and local government web resources and services.